Date String (YYYY-MM-DD hh:mm:ss) UTC,Instrument flags,Ambient pressure (hPa),Sample flow (lpm),Bypass flow (lpm),Sample temperature (°C),Ambient temperature (°C),ASC tube jacket temperature (°C),LED temperature (°C),Box temperature (°C),Sample RH (%),Span deviation,Mass concentration (μg/m³),Mass concentration (μg/m³),Mass concentration (μg/m³)
DateTimeUTC,F1_M11,P_M11,Q1_M11,Q2_M11,T1_M11,T2_M11,T3_M11,T4_M11,T5_M11,U1_M11,ZSPAN_M11,X0_M11,X2_M11,X1_M11
2022-04-06 14:00:00,,0827.1,4.99,0.00,21.7,23.2,00.0,30.6,23.7,04.9,0000.0,0004.36,0001.33,0000.66
2022-04-06 14:01:00,,0827.1,5.00,0.00,21.8,23.1,00.0,30.7,23.7,05.0,0000.0,0003.14,0001.34,0000.66
2022-04-06 14:02:00,,0827.0,5.00,0.00,21.8,22.6,00.0,30.7,23.5,05.0,0000.0,0003.03,0001.27,0000.64
2022-04-06 14:03:00,,0826.8,5.00,0.00,21.7,22.1,00.0,30.7,23.3,04.9,0000.0,0003.13,0001.22,0000.63
2022-04-06 14:04:00,,0827.0,5.00,0.00,21.6,21.7,00.0,30.7,23.2,04.9,0000.0,0003.20,0001.23,0000.63
2022-04-06 14:05:00,,0826.9,5.00,0.00,21.6,21.3,00.0,30.7,23.1,05.0,0000.0,0004.47,0001.29,0000.62
2022-04-06 14:06:00,,0827.0,5.01,0.00,21.5,21.1,00.0,30.6,23.0,05.1,0000.0,0005.00,0001.41,0000.63
2022-04-06 14:07:00,,0826.9,5.00,0.00,21.4,20.8,00.0,30.6,22.9,05.0,0000.0,0005.12,0001.43,0000.64
2022-04-06 14:08:00,,0826.9,5.01,0.00,21.4,20.5,00.0,30.6,22.9,05.0,0000.0,0005.02,0001.40,0000.64
2022-04-06 14:09:00,,0827.1,5.00,0.00,21.4,20.4,00.0,30.5,22.9,04.9,0000.0,0005.06,0001.44,0000.65
2022-04-06 14:10:00,,0827.0,5.00,0.00,21.4,21.3,00.0,30.6,23.1,05.0,0000.0,0005.41,0001.45,0000.66
2022-04-06 14:11:00,,0827.1,5.02,0.00,21.6,22.5,00.0,30.6,23.5,05.0,0000.0,0005.37,0001.47,0000.66
2022-04-06 14:12:00,,0827.0,5.00,0.00,21.8,23.3,00.0,30.7,23.8,05.0,0000.0,0005.41,0001.50,0000.65
2022-04-06 14:13:00,,0827.0,4.99,0.00,21.8,23.0,00.0,30.7,23.8,04.9,0000.0,0005.59,0001.57,0000.66
2022-04-06 14:14:00,,0827.0,5.01,0.00,21.8,22.5,00.0,30.7,23.6,05.1,0000.0,0005.52,0001.60,0000.67
2022-04-06 14:15:00,,0827.0,5.00,0.00,21.8,22.1,00.0,30.7,23.4,05.1,0000.0,0005.68,0001.65,0000.68
2022-04-06 14:16:00,,0826.9,5.00,0.00,21.7,21.7,00.0,30.7,23.3,05.0,0000.0,0004.80,0001.66,0000.69
2022-04-06 14:17:00,,0826.9,5.01,0.00,21.7,21.4,00.0,30.7,23.2,05.0,0000.0,0004.94,0001.70,0000.69
2022-04-06 14:18:00,,0826.9,4.98,0.00,21.6,21.1,00.0,30.7,23.1,05.1,0000.0,0004.98,0001.65,0000.68
2022-04-06 14:19:00,,0826.7,5.01,0.00,21.5,20.9,00.0,30.7,23.1,05.1,0000.0,0005.92,0001.66,0000.67
2022-04-06 14:20:00,,0826.6,4.99,0.00,21.5,20.7,00.0,30.6,23.0,05.0,0000.0,0006.03,0001.63,0000.67
2022-04-06 14:21:00,,0826.6,5.01,0.00,21.5,20.5,00.0,30.6,23.0,04.9,0000.0,0007.66,0001.66,0000.67
2022-04-06 14:22:00,,0826.6,4.99,0.00,21.5,21.1,00.0,30.6,23.1,04.9,0000.0,0007.82,0001.66,0000.67
2022-04-06 14:23:00,,0826.6,5.00,0.00,21.7,22.3,00.0,30.7,23.5,04.9,0000.0,0008.18,0001.71,0000.68
2022-04-06 14:24:00,,0826.5,4.99,0.00,21.9,23.3,00.0,30.7,23.9,04.9,0000.0,0008.49,0001.74,0000.68
2022-04-06 14:25:00,,0826.3,5.00,0.00,22.0,23.1,00.0,30.7,23.9,04.8,0000.0,0009.28,0001.74,0000.68
2022-04-06 14:26:00,,0826.3,5.00,0.00,21.9,22.6,00.0,30.8,23.8,04.8,0000.0,0009.30,0001.79,0000.67
2022-04-06 14:27:00,,0826.4,5.00,0.00,21.9,22.1,00.0,30.8,23.6,04.8,0000.0,0009.29,0001.78,0000.68
2022-04-06 14:28:00,,0826.4,5.01,0.00,21.9,21.6,00.0,30.8,23.6,04.9,0000.0,0009.02,0001.75,0000.68
2022-04-06 14:29:00,,0826.4,5.00,0.00,21.9,21.3,00.0,30.7,23.4,04.9,0000.0,0008.85,0001.76,0000.69
2022-04-06 14:30:00,,0826.5,5.00,0.00,21.8,21.1,00.0,30.7,23.3,04.8,0000.0,0008.76,0001.81,0000.69
2022-04-06 14:31:00,,0826.4,5.00,0.00,21.7,20.9,00.0,30.7,23.3,04.9,0000.0,0008.70,0001.83,0000.68
2022-04-06 14:32:00,,0826.2,5.00,0.00,21.7,20.7,00.0,30.7,23.2,04.9,0000.0,0007.38,0001.75,0000.67
2022-04-06 14:33:00,,0826.0,4.99,0.00,21.7,20.5,00.0,30.7,23.2,04.8,0000.0,0007.96,0001.78,0000.67
2022-04-06 14:34:00,,0826.0,5.01,0.00,21.7,21.3,00.0,30.7,23.4,04.8,0000.0,0008.18,0001.80,0000.67
2022-04-06 14:35:00,,0826.1,5.00,0.00,21.9,22.6,00.0,30.8,23.8,04.8,0000.0,0008.12,0001.81,0000.66
2022-04-06 14:36:00,,0826.0,5.00,0.00,22.0,23.3,00.0,30.8,24.1,04.8,0000.0,0007.68,0001.85,0000.66
2022-04-06 14:37:00,,0825.8,5.00,0.00,22.1,22.9,00.0,30.9,24.0,04.7,0000.0,0007.84,0001.79,0000.66
2022-04-06 14:38:00,,0825.8,4.99,0.00,22.1,22.4,00.0,30.9,23.9,04.6,0000.0,0009.03,0001.85,0000.67
2022-04-06 14:39:00,,0825.7,4.99,0.00,22.0,21.9,00.0,30.9,23.7,04.6,0000.0,0009.87,0001.89,0000.68
2022-04-06 14:40:00,,0825.7,5.01,0.00,22.0,21.4,00.0,30.9,23.6,04.5,0000.0,0017.48,0002.03,0000.69
2022-04-06 14:41:00,,0825.8,5.01,0.00,21.9,21.1,00.0,30.8,23.4,04.5,0000.0,0018.06,0002.10,0000.70
2022-04-06 14:42:00,,0826.1,5.00,0.00,21.8,20.8,00.0,30.8,23.3,04.6,0000.0,0019.06,0002.15,0000.70
2022-04-06 14:43:00,,0825.9,5.00,0.00,21.8,20.6,00.0,30.8,23.2,04.8,0000.0,0020.30,0002.16,0000.70
2022-04-06 14:44:00,,0825.6,5.00,0.00,21.7,20.6,00.0,30.8,23.2,04.7,0000.0,0020.65,0002.14,0000.71
2022-04-06 14:45:00,,0825.8,5.00,0.00,21.8,21.7,00.0,30.8,23.5,04.4,0000.0,0020.09,0002.12,0000.70
2022-04-06 14:46:00,,0826.0,5.01,0.00,22.0,22.8,00.0,30.9,23.9,04.4,0000.0,0020.23,0002.09,0000.71
2022-04-06 14:47:00,,0826.1,4.98,0.00,22.1,23.1,00.0,30.9,24.0,04.5,0000.0,0019.89,0002.04,0000.71
2022-04-06 14:48:00,,0826.0,5.00,0.00,22.1,22.6,00.0,30.9,23.9,04.6,0000.0,0020.69,0002.04,0000.70
2022-04-06 14:49:00,,0826.0,4.99,0.00,22.1,22.1,00.0,30.9,23.8,04.5,0000.0,0019.88,0001.99,0000.70
2022-04-06 14:50:00,,0826.1,5.01,0.00,22.0,21.7,00.0,30.9,23.6,04.9,0000.0,0019.00,0001.90,0000.69
2022-04-06 14:51:00,,0826.0,5.00,0.00,22.0,21.3,00.0,30.9,23.5,05.2,0000.0,0013.59,0001.84,0000.67
2022-04-06 14:52:00,,0825.8,5.00,0.00,21.9,21.0,00.0,30.9,23.4,05.0,0000.0,0010.95,0001.80,0000.68
2022-04-06 14:53:00,,0825.8,4.99,0.00,21.8,20.7,00.0,30.9,23.3,04.6,0000.0,0010.48,0001.81,0000.68
2022-04-06 14:54:00,,0825.9,5.00,0.00,21.8,20.7,00.0,30.8,23.2,05.0,0000.0,0009.20,0001.84,0000.69
2022-04-06 14:55:00,,0825.8,5.02,0.00,21.9,21.6,00.0,30.9,23.5,05.1,0000.0,0009.29,0001.88,0000.69
2022-04-06 14:56:00,,0826.0,4.99,0.00,22.0,22.8,00.0,30.9,23.9,04.9,0000.0,0009.44,0001.88,0000.70
2022-04-06 14:57:00,,0825.9,5.01,0.00,22.2,23.3,00.0,31.0,24.1,04.9,0000.0,0009.02,0001.85,0000.70
2022-04-06 14:58:00,,0825.8,4.99,0.00,22.2,22.9,00.0,31.0,24.0,04.9,0000.0,0009.56,0001.88,0000.71
2022-04-06 14:59:00,,0825.7,5.00,0.00,22.1,22.4,00.0,31.0,23.9,04.9,0000.0,0009.50,0001.92,0000.72
